Weather History for Fryeburg, ME

Change the Weather History Date:

Sunday, January 6, 2013

  Actual Average Record
Temperature  
Mean Temperature 22 °F -  
Max Temperature 34 °F 28 °F 64 °F (2007)
Min Temperature 9 °F 9 °F -14 °F (1999)
Degree Days  
Heating Degree Days 44    
Moisture  
Dew Point 15 °F    
Average Humidity 77    
Maximum Humidity 100    
Minimum Humidity 56    
Precipitation  
Precipitation 0.00 in - - ()
Sea Level Pressure  
Sea Level Pressure 30.02 in    
Wind  
Wind Speed 0 mph (North)    
Max Wind Speed 5 mph    
Max Gust Speed -    
Visibility 10 miles    
Events Snow    
Averages and records for this station are not official NWS values.
T = Trace of Precipitation, MM = Missing Value Source: NWS Daily Summary

Daily Weather History Graph

Daily Weather History Graph

Search for Another Location

Airport:

Trip Planner

Search our weather history database for the weather conditions in past years. The results will help you decide how hot, cold, wet, or windy it might be!

Date:

Astronomy

Jan. 06, 2013 Rise Set
Actual Time 7:18 AM EST 4:21 PM EST
Civil Twilight 6:45 AM EST 4:54 PM EST
Nautical Twilight 6:09 AM EST 5:30 PM EST
Astronomical Twilight 5:34 AM EST 6:05 PM EST
Moon 1:24 AM EST (1/6) 11:50 AM EST (1/6)
Length of Visible Light 10h 08m
Length of Day
9h 03m
Waning Crescent, 33% of the Moon is Illuminated
Jan 6
Waning Crescent
Jan 11
New
Jan 18
First Quarter
Jan 26
Full
Feb 3
Last Quarter

Hourly Weather History & Observations

Time (EST) Temp. Windchill Dew Point Humidity Pressure Visibility Wind Dir Wind Speed Gust Speed Precip Events Conditions
12:54 AM 9.0 °F - 5.0 °F 84% 30.21 in 10.0 mi Calm Calm - N/A   Clear
1:54 AM 9.0 °F - 5.0 °F 84% 30.21 in 10.0 mi Calm Calm - N/A   Clear
2:54 AM 10.9 °F - 6.1 °F 81% 30.19 in 10.0 mi Calm Calm - N/A   Clear
3:54 AM 12.0 °F - 7.0 °F 80% 30.17 in 10.0 mi Calm Calm - N/A   Mostly Cloudy
4:54 AM 14.0 °F - 8.1 °F 77% 30.12 in 10.0 mi Calm Calm - N/A   Overcast
5:54 AM 15.1 °F - 9.0 °F 77% 30.11 in 10.0 mi Calm Calm - N/A   Overcast
6:54 AM 15.1 °F - 10.0 °F 80% 30.09 in 10.0 mi Calm Calm - 0.00 in   Overcast
7:54 AM 15.1 °F - 10.9 °F 84% 30.06 in 7.0 mi Calm Calm - 0.00 in   Overcast
8:38 AM 15.8 °F - 10.4 °F 79% 30.02 in 6.0 mi Calm Calm - 0.00 in Snow Light Snow
8:54 AM 17.1 °F - 12.0 °F 81% 30.05 in 9.0 mi Calm Calm - 0.00 in   Overcast
9:30 AM 17.6 °F - 10.4 °F 73% 30.01 in 10.0 mi Calm Calm - N/A   Mostly Cloudy
9:54 AM 19.0 °F - 12.9 °F 77% 30.03 in 10.0 mi Calm Calm - 0.00 in   Clear
10:54 AM 24.1 °F - 15.1 °F 69% 29.99 in 10.0 mi Calm Calm - 0.00 in   Clear
11:54 AM 27.0 °F - 16.0 °F 63% 29.95 in 10.0 mi Calm Calm - 0.00 in   Mostly Cloudy
12:54 PM 30.0 °F 25.2 °F 18.0 °F 61% 29.93 in 10.0 mi NNE 4.6 mph - N/A   Scattered Clouds
1:54 PM 33.1 °F 30.0 °F 21.0 °F 61% 29.93 in 10.0 mi North 3.5 mph - 0.00 in   Overcast
2:54 PM 33.1 °F - 19.0 °F 56% 29.91 in 10.0 mi Calm Calm - N/A   Clear
3:54 PM 34.0 °F - 23.0 °F 64% 29.91 in 10.0 mi Calm Calm - N/A   Mostly Cloudy
4:54 PM 32.0 °F - 23.0 °F 69% 29.91 in 10.0 mi Calm Calm - 0.00 in   Overcast
5:54 PM 28.9 °F - 21.9 °F 75% 29.92 in 10.0 mi Calm Calm - N/A   Clear
7:54 PM 26.1 °F - 21.9 °F 84% 29.94 in 10.0 mi Calm Calm - N/A   Scattered Clouds
8:54 PM 27.0 °F - 24.1 °F 89% 29.93 in 10.0 mi Calm Calm - N/A   Mostly Cloudy
10:54 PM 24.1 °F - 23.0 °F 96% 29.94 in 9.0 mi Calm Calm - N/A   Clear
11:54 PM 21.9 °F - 21.9 °F 100% 29.94 in 8.0 mi Calm Calm - N/A   Overcast